DW2607 Weather Reports


time (UTC)temp
C
wind
direction
speed
KPH
gust
KPH
rain 1hr
cm
rain 24hr
cm
rain mn
cm
humidity
%
barometer
mb
20260505101516 11 0.0 1.6 0.00 0.00 0.00 90 1011.4
20260505100518 11 0.0 4.8 0.00 0.00 0.00 90 1011.3
20260505095517 11 0.0 6.4 0.00 0.00 0.00 90 1011.3
20260505094517 11 0.0 3.2 0.00 0.00 0.00 89 1011.2
20260505093517 11 0.0 3.2 0.00 0.00 0.00 89 1011.2
20260505092517 11 0.0 3.2 0.00 0.00 0.00 89 1011.1
20260505091518 11 0.0 3.2 0.00 0.00 0.00 89 1011.0
20260505090521 12 0.0 1.6 0.00 0.00 0.00 88 1011.0
20260505085519 12 0.0 0.0 0.00 0.00 0.00 88 1010.9
20260505084537 12 0.0 0.0 0.00 0.00 0.00 88 1010.8
20260505083516 12 0.0 0.0 0.00 0.00 0.00 87 1010.8
20260505082518 12 0.0 0.0 0.00 0.00 0.00 86 1010.8
20260505081518 12 0.0 3.2 0.00 0.00 0.00 86 1010.7
20260505080522 12 0.0 3.2 0.00 0.00 0.00 86 1010.7
20260505075523 12 0.0 3.2 0.00 0.00 0.00 85 1010.7
20260505074539 13 0.0 0.0 0.00 0.00 0.00 85 1010.6
20260505073540 13 0.0 3.2 0.00 0.00 0.00 84 1010.6
20260505072801 13 0.0 0.0 0.00 0.00 0.00 84 1010.4
20260505071518 13 0.0 3.2 0.00 0.00 0.00 83 1010.3
20260505070538 13 0.0 3.2 0.00 0.00 0.00 83 1010.2
20260505065518 13 0.0 3.2 0.00 0.00 0.00 82 1010.1
20260505064538 13 0.0 1.6 0.00 0.00 0.00 81 1010.0
20260505063516 14 0.0 3.2 0.00 0.00 0.00 80 1009.9
20260505062517 14 0.0 3.2 0.00 0.00 0.00 80 1009.9
20260505061522 15 0.0 3.2 0.00 0.00 0.00 79 1009.7
20260505060517 15 0.0 0.0 0.00 0.00 0.00 78 1009.5
20260505055516 15 0.0 0.0 0.00 0.00 0.00 77 1009.4
20260505054516 16 0.0 0.0 0.00 0.00 0.00 77 1009.3
20260505053518 16 0.0 0.0 0.00 0.00 0.00 76 1009.2
20260505052518 16 0.0 0.0 0.00 0.00 0.00 74 1009.3
20260505051519 16 0.0 0.0 0.00 0.00 0.00 74 1009.1
20260505050518 17 0.0 0.0 0.00 0.00 0.00 72 1009.1
20260505041518 18 0.0 0.0 0.00 0.00 0.00 61 1008.6
20260505040518 18 0.0 0.0 0.00 0.00 0.00 61 1008.5
20260505035519 19 0.0 0.0 0.00 0.00 0.00 59 1008.4
20260505034520 19 0.0 0.0 0.00 0.00 0.00 57 1008.3
20260505033518 20 0.0 0.0 0.00 0.00 0.00 55 1008.1
20260505032520 20 0.0 0.0 0.00 0.00 0.00 55 1008.0
20260505031520 21 0.0 3.2 0.00 0.00 0.00 52 1008.0
20260505030518 21 0.0 0.0 0.00 0.00 0.00 50 1007.8
20260505025558 21 0.0 0.0 0.00 0.00 0.00 49 1007.8
20260505024518 22 0.0 0.0 0.00 0.00 0.00 48 1007.8
20260505023516 22 0.0 1.6 0.00 0.00 0.00 48 1007.7
20260505022518 22 0.0 3.2 0.00 0.00 0.00 48 1007.6
20260505021518 23 0 1.6 4.8 0.00 0.00 0.00 47 1007.7
20260505020540 23 0 3.2 6.4 0.00 0.00 0.00 46 1007.8
20260505015518 24 0.0 3.2 0.00 0.00 0.00 47 1007.6
20260505014518 25 0.0 3.2 0.00 0.00 0.00 48 1007.7
20260505013520 25 0.0 0.0 0.00 0.00 0.00 47 1007.6
20260505012518 25 0.0 3.2 0.00 0.00 0.00 48 1007.6
20260505011518 25 0.0 3.2 0.00 0.00 0.00 47 1007.7
20260505010519 26 0.0 3.2 0.00 0.00 0.00 45 1007.7
20260505005520 25 0.0 3.2 0.00 0.00 0.00 45 1007.7
20260505004518 26 0.0 3.2 0.00 0.00 0.00 42 1007.8
20260505003518 26 0.0 3.2 0.00 0.00 0.00 41 1007.7
20260505002519 27 0.0 3.2 0.00 0.00 0.00 40 1007.8
20260505001518 26 0.0 3.2 0.00 0.00 0.00 42 1007.8
20260505000518 26 0.0 4.8 0.00 0.00 0.00 40 1007.8
20260504235519 27 0.0 3.2 0.00 0.00 0.00 38 1007.8
20260504234539 28 0.0 3.2 0.00 0.00 0.00 38 1007.9
20260504233518 27 180 1.6 6.4 0.00 0.00 0.00 38 1007.9
20260504232518 27 0.0 3.2 0.00 0.00 0.00 38 1007.8
20260504231519 26 0.0 3.2 0.00 0.00 0.00 40 1007.9
20260504230518 26 270 1.6 8.0 0.00 0.00 0.00 41 1007.9
20260504225603 26 0.0 3.2 0.00 0.00 0.00 41 1008.1
20260504224519 26 158 1.6 8.0 0.00 0.00 0.00 42 1008.1
20260504223517 26 0.0 3.2 0.00 0.00 0.00 42 1008.2
20260504222518 25 0.0 3.2 0.00 0.00 0.00 41 1008.4
20260504221518 26 203 1.6 4.8 0.00 0.00 0.00 42 1008.4
20260504220518 26 0.0 3.2 0.00 0.00 0.00 41 1008.6
20260504215519 26 158 3.2 9.7 0.00 0.00 0.00 42 1008.6
20260504214538 25 0.0 3.2 0.00 0.00 0.00 41 1008.7
20260504213539 25 0.0 4.8 0.00 0.00 0.00 42 1008.8
20260504212519 25 0.0 3.2 0.00 0.00 0.00 42 1008.9
20260504211539 25 0.0 3.2 0.00 0.00 0.00 43 1008.9
20260504210538 25 180 1.6 3.2 0.00 0.00 0.00 45 1009.0
20260504205539 25 180 1.6 4.8 0.00 0.00 0.00 43 1009.1
20260504204518 25 0.0 1.6 0.00 0.00 0.00 45 1009.0
20260504203517 25 158 1.6 6.4 0.00 0.00 0.00 46 1009.0
20260504202518 25 180 1.6 4.8 0.00 0.00 0.00 45 1009.0
20260504201518 25 0.0 3.2 0.00 0.00 0.00 48 1009.0
20260504200517 25 0.0 3.2 0.00 0.00 0.00 46 1009.0
20260504195517 25 158 1.6 3.2 0.00 0.00 0.00 45 1008.9
20260504194519 25 158 1.6 3.2 0.00 0.00 0.00 47 1009.0
20260504193519 25 158 1.6 3.2 0.00 0.00 0.00 46 1009.1
20260504192518 25 0.0 3.2 0.00 0.00 0.00 45 1009.2
20260504191517 25 135 1.6 4.8 0.00 0.00 0.00 46 1009.3
20260504190538 25 113 1.6 6.4 0.00 0.00 0.00 43 1009.5
20260504185517 25 135 1.6 3.2 0.00 0.00 0.00 45 1009.5
20260504184518 25 113 1.6 4.8 0.00 0.00 0.00 46 1009.4
20260504183518 25 0.0 3.2 0.00 0.00 0.00 45 1009.4
20260504182539 24 135 1.6 4.8 0.00 0.00 0.00 42 1009.4
20260504181519 23 0.0 1.6 0.00 0.00 0.00 44 1009.4
20260504180519 23 45 1.6 4.8 0.00 0.00 0.00 44 1009.5
20260504175539 23 90 1.6 4.8 0.00 0.00 0.00 41 1009.5
20260504174517 23 113 1.6 6.4 0.00 0.00 0.00 40 1009.5
20260504173519 23 135 1.6 6.4 0.00 0.00 0.00 41 1009.5
20260504172517 22 45 1.6 9.7 0.00 0.00 0.00 45 1009.6
20260504171518 22 158 1.6 8.0 0.00 0.00 0.00 45 1009.5
20260504170517 21 135 3.2 6.4 0.00 0.00 0.00 48 1009.5
20260504150517 16 0.0 0.0 0.00 0.00 0.00 65 1008.8
20260504140517 14 0.0 0.0 0.00 0.00 0.00 73 1008.5
20260504130518 13 0.0 0.0 0.00 0.00 0.00 73 1008.2
20260504110517 16 0.0 0.0 0.00 0.00 0.00 54 1008.1